This is the latest recevied weather packets stored in our database for station/object WD4HMR. If no packets are shown the sender has not sent any weather packets the latest 10 day(s).
| Time | Temp. | Humidity | Pressure | Rain* | Wind** | Luminosity | Snow |
|---|---|---|---|---|---|---|---|
| 1777319404 | 25.56° C | 69% | 1018.1 hPa | 0 mm | - | 1133 W/m² | - |
| 1777319104 | 25° C | 70% | 1018 hPa | 0 mm | - | 1146 W/m² | - |
| 1777318505 | 25° C | 71% | 1018 hPa | 0 mm | - | 1171 W/m² | - |
| 1777317604 | 25° C | 70% | 1018.1 hPa | 0 mm | - | 1202 W/m² | - |
| 1777316404 | 24.44° C | 72% | 1018.1 hPa | 0 mm | - | 1235 W/m² | - |
| 1777316103 | 24.44° C | 73% | 1018.3 hPa | 0 mm | - | 1241 W/m² | - |
| 1777315505 | 24.44° C | 74% | 1018.3 hPa | 0 mm | - | 1251 W/m² | - |
| 1777314904 | 23.89° C | 74% | 1018.4 hPa | 0 mm | - | 1259 W/m² | - |
| 1777314605 | 23.33° C | 76% | 1018.4 hPa | 0 mm | - | 1262 W/m² | - |
| 1777314304 | 23.33° C | 75% | 1018.4 hPa | 0 mm | - | 1264 W/m² | - |
| 1777313704 | 22.78° C | 77% | 1018.4 hPa | 0 mm | - | 1265 W/m² | - |
| 1777313404 | 23.33° C | 77% | 1018.5 hPa | 0 mm | - | 1265 W/m² | - |
| 1777312504 | 22.78° C | 76% | 1018.5 hPa | 0 mm | - | 1260 W/m² | - |
| 1777311903 | 22.78° C | 79% | 1018.5 hPa | 0 mm | - | 1252 W/m² | - |
| 1777311304 | 22.78° C | 76% | 1018.6 hPa | 0 mm | - | 1242 W/m² | - |
| 1777310404 | 22.22° C | 77% | 1018.5 hPa | 0 mm | - | 1221 W/m² | - |
| 1777308604 | 21.67° C | 81% | 1018.8 hPa | 0 mm | - | 1161 W/m² | - |
| 1777307705 | 21.67° C | 80% | 1018.8 hPa | 0 mm | - | 1123 W/m² | - |
| 1777307404 | 21.67° C | 82% | 1018.8 hPa | 0 mm | - | 1108 W/m² | - |
| 1777307104 | 21.67° C | 81% | 1018.8 hPa | 0 mm | - | 1094 W/m² | - |
| 1777306804 | 21.67° C | 81% | 1018.9 hPa | 0 mm | - | 1079 W/m² | - |
| 1777306504 | 21.11° C | 82% | 1018.8 hPa | 0 mm | - | 1063 W/m² | - |
| 1777306204 | 21.11° C | 82% | 1018.8 hPa | 0 mm | - | 1047 W/m² | - |
| 1777305304 | 20.56° C | 84% | 1018.5 hPa | 0 mm | - | 996 W/m² | - |
| 1777304404 | 20.56° C | 84% | 1018.5 hPa | 0 mm | - | 941 W/m² | - |
* Rain latest hour (hover to see other rain measurements)
** Current wind speed in m/s (hover to see current wind gust speed)